Flag for Australia Weather past 2 weeks in Sydney, New South Wales, Australia

Now
61 °F

Clear.


Feels Like: 61 °F
Forecast: 53 / 65 °F
Wind: 9 mph from Northeast

Location: Sydney Airport

Current Time: Jul 26, 2014 at 12:05:40 AM

Latest Report: Jul 25, 2014 at 11:30 PM


Visibility: 10 mi

Pressure: 30.18 "Hg

Humidity: 68%

Dew point: 50 °F

Location of SydneyLocation

Historic Weather in Sydney — Graph

°F

Sydney temperature yesterday

Maximum temperature yesterday: 68 °F (at 1:30 PM)
Minimum temperature yesterday: 50 °F (at 4:00 AM)
Average temperature yesterday: 59 °F

Past Weeks' High & Low Weather Summary

 TemperatureHumidityPressure
High68 °F (Jul 17, 12:30 PM)100% (Jul 14, 11:00 PM)30.48 "Hg (Jul 14, 11:00 PM)
Low43 °F (Jul 12, 5:30 AM)26% (Jul 17, 3:00 PM)29.74 "Hg (Jul 18, 5:00 AM)
Average55 °F63%30.13 "Hg
* Reported Jul 10 10:00 PM — Jul 25 10:30 PM, Sydney, Weather by CustomWeather, © 2014

Note: Actual official high and low records may vary slightly from our data, if they occured in-between our weather recording intervals... More about our weather records

Advertising

Sydney weather history for previous 24 hours

 ConditionsComfort  
Time TempWeatherWind HumidityBarometerVisibility
10:30 PM
Jul 25
64 °FClear.9 mph56%30.18 "Hg10 mi
9:30 PM64 °FClear.9 mph56%30.18 "Hg10 mi
9:00 PM64 °FClear.12 mph56%30.18 "Hg10 mi
8:30 PM64 °FClear.12 mph56%30.18 "Hg10 mi
8:00 PM66 °FClear.14 mph52%30.18 "Hg10 mi
7:30 PM66 °FClear.15 mph49%30.15 "Hg10 mi
7:00 PM66 °FClear.15 mph49%30.15 "Hg10 mi
6:30 PM66 °FClear.15 mph49%30.15 "Hg10 mi
6:00 PM66 °FPassing clouds.17 mph49%30.12 "HgN/A
5:30 PM68 °FPassing clouds.20 mph49%30.12 "HgN/A
5:00 PM68 °FPassing clouds.20 mph49%30.09 "HgN/A
4:30 PM68 °FPassing clouds.17 mph49%30.09 "HgN/A
4:00 PM68 °FPartly sunny.15 mph53%30.09 "HgN/A
3:30 PM68 °FPartly sunny.13 mph53%30.09 "HgN/A
3:00 PM68 °FPartly sunny.13 mph53%30.09 "HgN/A
2:30 PM68 °FPartly sunny.18 mph49%30.09 "HgN/A
2:00 PM68 °FPartly sunny.17 mph53%30.09 "HgN/A
1:30 PM68 °FPartly sunny.17 mph53%30.09 "HgN/A
1:00 PM66 °FPartly sunny.13 mph56%30.09 "HgN/A
12:30 PM64 °FPartly sunny.8 mph64%30.12 "HgN/A
12:00 PM61 °FPartly sunny.8 mph72%30.15 "HgN/A
11:30 AM61 °FLight rain. Broken clouds.10 mph72%30.12 "HgN/A
11:00 AM57 °FSprinkles. Broken clouds.9 mph82%30.15 "HgN/A
10:30 AM55 °FScattered showers. Broken clouds.12 mph82%30.18 "HgN/A
10:00 AM54 °FSprinkles. Partly sunny.13 mph82%30.21 "HgN/A
9:00 AM52 °FDrizzle. Partly sunny.8 mph82%30.21 "HgN/A
8:30 AM54 °FDrizzle. Partly sunny.9 mph77%30.18 "HgN/A
8:00 AM54 °FPartly sunny.8 mph77%30.15 "HgN/A
7:30 AM50 °FScattered clouds.10 mph88%30.15 "HgN/A
7:00 AM50 °FScattered clouds.9 mph88%30.15 "HgN/A
6:30 AM50 °FPassing clouds.7 mph88%30.15 "HgN/A
6:00 AM50 °FSunny.6 mph88%30.12 "Hg10 mi
5:30 AM50 °FClear.7 mph88%30.12 "Hg10 mi
5:00 AM50 °FClear.6 mph88%30.12 "Hg10 mi
4:30 AM50 °FClear.6 mph88%30.12 "Hg10 mi
4:00 AM50 °FClear.6 mph88%30.09 "Hg10 mi
3:30 AM52 °FClear.6 mph82%30.09 "Hg10 mi
3:00 AM52 °FClear.5 mph82%30.12 "Hg10 mi
2:30 AM52 °FClear.6 mph82%30.12 "Hg10 mi
2:00 AM52 °FClear.7 mph82%30.12 "Hg10 mi
1:30 AM54 °FScattered showers. Clear.6 mph82%30.09 "HgN/A
1:00 AM54 °FClear.8 mph82%30.09 "Hg10 mi
12:30 AM55 °FSprinkles. Clear.6 mph77%30.09 "HgN/A
12:00 AM55 °FClear.5 mph77%30.09 "Hg10 mi
Weather by CustomWeather, © 2014

See weather overviewHow to use our weather pages